This is the latest recevied weather packets stored in our database for station/object KB4MLW-13. If no packets are shown the sender has not sent any weather packets the latest 10 day(s).
| Time | Temp. | Humidity | Pressure | Rain* | Wind** | Luminosity | Snow |
|---|---|---|---|---|---|---|---|
| 1788376199 | 35.56° C | 54% | 1000.7 hPa | 0 mm | - | - | - |
| 1788376138 | 35.56° C | 56% | 1000.8 hPa | 0 mm | - | - | - |
| 1788376018 | 35.56° C | 58% | 1000.5 hPa | 0 mm | - | - | - |
| 1788375958 | 35.56° C | 53% | 1000.8 hPa | 0 mm | - | - | - |
| 1788375898 | 35.56° C | 53% | 1000.9 hPa | 0 mm | - | - | - |
| 1788375809 | 35.56° C | 53% | 1000.8 hPa | 0 mm | - | - | - |
| 1788375757 | 35° C | 56% | 1001 hPa | 0 mm | - | - | - |
| 1788375659 | 35° C | 54% | 1000.8 hPa | 0 mm | - | - | - |
| 1788375568 | 35° C | 54% | 1000.8 hPa | 0 mm | - | - | - |
| 1788375508 | 35° C | 54% | 1000.9 hPa | 0 mm | - | - | - |
| 1788375418 | 34.44° C | 53% | 1001.1 hPa | 0 mm | - | - | - |
| 1788375358 | 34.44° C | 53% | 1001 hPa | 0 mm | - | - | - |
| 1788375298 | 34.44° C | 54% | 1001.1 hPa | 0 mm | - | - | - |
| 1788375209 | 35° C | 58% | 1001 hPa | 0 mm | - | - | - |
| 1788375119 | 35.56° C | 52% | 1001 hPa | 0 mm | - | - | - |
| 1788375058 | 35.56° C | 54% | 1000.7 hPa | 0 mm | - | - | - |
| 1788374998 | 36.11° C | 51% | 1001 hPa | 0 mm | - | - | - |
| 1788374938 | 36.11° C | 51% | 1001 hPa | 0 mm | - | - | - |
| 1788374878 | 36.11° C | 50% | 1001.1 hPa | 0 mm | - | - | - |
| 1788374818 | 36.11° C | 52% | 1001.1 hPa | 0 mm | - | - | - |
| 1788374728 | 36.11° C | 53% | 1000.9 hPa | 0 mm | - | - | - |
| 1788374668 | 35.56° C | 55% | 1001 hPa | 0 mm | - | - | - |
| 1788374579 | 35° C | 52% | 1000.9 hPa | 0 mm | - | - | - |
| 1788374518 | 35° C | 55% | 1001.1 hPa | 0 mm | - | - | - |
| 1788374458 | 35° C | 52% | 1000.9 hPa | 0 mm | - | - | - |
* Rain latest hour (hover to see other rain measurements)
** Current wind speed in m/s (hover to see current wind gust speed)